Meath Environmental Platform

Observations for Trim Market St

Time AQI Temp °C Hum % Pres Pa CO μg/m³ H₂S μg/m³ NO μg/m³ NO₂ μg/m³ O₃ μg/m³ SO₂ μg/m³ PM1 μg/m³ PM2.5 μg/m³ PM10 μg/m³
Monday 17 August 2026
22:55 2 20 83 2,147,483,647 0.03 0 2.37 0.53 47.34 0 0 0.56 3.14
22:54 2 20 83 2,147,483,647 0.05 0 2.36 3.57 51.42 0 0 0.56 3.14
22:53 2 19.9 83 2,147,483,647 0.07 0 2.33 0.95 54.66 0 0 0.56 3.14
22:52 2 19.9 83 2,147,483,647 0.06 0 2.33 0 42.33 0 0.71 1.03 3.69
22:50 2 19.9 83 2,147,483,647 0.04 0 2.36 0 40.96 0 0 1.03 4.79
22:49 2 19.9 83 2,147,483,647 0.06 0 2.35 0.93 47.45 0 0 0.56 3.14
22:40 2 19.9 83 2,147,483,647 0.05 0 2.38 0 49.22 0 0 0.55 3.15
22:38 2 19.9 83 2,147,483,647 0.05 0 2.38 2.2 40.66 0 0 0.55 3.15
22:35 2 19.9 84 2,147,483,647 0.07 0 2.31 0 42.56 0 0 0.55 3.16
22:34 2 19.9 84 2,147,483,647 0.06 0 2.31 1.89 51.21 0 0 0.55 3.16
22:32 2 19.9 84 2,147,483,647 0.09 0 2.28 7.3 50.96 0 0 0.55 3.16
22:31 2 19.9 84 2,147,483,647 0.06 0 2.31 0 45.07 0 0 0.55 3.16
22:30 2 19.9 84 2,147,483,647 0.07 0 2.34 2.19 49.85 0 0 0.55 3.16
22:29 2 19.8 84 2,147,483,647 0.07 0 2.34 5.53 52.3 0 0 0.55 3.16
22:27 2 19.8 84 2,147,483,647 0.06 0 2.34 0.77 43.99 0 0 0.55 3.16
22:26 2 19.8 84 2,147,483,647 0.08 0 2.34 0 42.75 0 0 1.01 3.71
22:25 2 19.8 84 2,147,483,647 0.07 0 2.35 0.75 45.84 0 0 1.01 3.71
22:24 2 19.8 84 2,147,483,647 0.07 0 2.35 7.06 52.28 0 0 0.54 4.26
22:20 2 19.8 84 2,147,483,647 0.07 0 2.22 7.85 54.98 0 0 0.54 3.17
22:19 2 19.8 84 2,147,483,647 0.07 0 2.22 6.61 49.39 0 0 0.54 3.17